Terug naar catalogus

START 1 DEB

ActiefLEO
NORAD 27752·DEBRIS·🇷🇺 Russia

Gelanceerd Mar 25, 1993 vanaf Plesetsk Cosmodrome

Loading…

Volgende Passages (komende 24 uur)

TLE

VersSource: Space-Track

Epoch: Sep 14, 2026, 09:14 UTC

1 27752U 93014G   26257.38529877  .00000243  00000-0  85907-4 0  9993
2 27752  75.7599 136.8172 0178751 196.8569 162.6605 14.29011795271632

Volg START 1 DEB in realtime met AllMySat

Download on the App Store